BEL1PD LFML-EBBR

Flight info

Callsign BEL1PD
Flight time 1h 27m
Altitude 34000
Route ETREK DCT OMASI N871 MOLUS T330 GILIR DCT PENDU DCT IXILU DCT IBERA N853 DIK N852 LNO
Aircraft A320/M-DE3FGHIJ1LORVWY/HB1

Departure

Time 2026-04-30 08:49
Airport Marseille Provence Airport (LFML)

Arrival

Time 2026-04-30 10:17
Airport Brussels Airport (EBBR)
Time Latitude Longitude Altitude Speed Heading
2026-04-30 08:09 43.44055 5.22100 38 ft 0 kts 40°
2026-04-30 08:40 43.44043 5.22083 35 ft 4 kts 63°
2026-04-30 08:40 43.44032 5.22051 35 ft 3 kts 57°
2026-04-30 08:40 43.44021 5.22024 36 ft 4 kts 81°
2026-04-30 08:40 43.44024 5.21991 36 ft 4 kts 128°
2026-04-30 08:41 43.44032 5.21978 35 ft 1 kts 134°
2026-04-30 08:41 43.44033 5.21978 35 ft 0 kts 134°
2026-04-30 08:43 43.44016 5.22002 36 ft 8 kts 133°
2026-04-30 08:43 43.43955 5.22088 37 ft 17 kts 131°
2026-04-30 08:43 43.43898 5.22167 37 ft 11 kts 143°
2026-04-30 08:44 43.43832 5.22209 37 ft 10 kts 158°
2026-04-30 08:44 43.43771 5.22219 37 ft 8 kts 206°
2026-04-30 08:44 43.43727 5.22180 37 ft 7 kts 228°
2026-04-30 08:44 43.43695 5.22137 37 ft 6 kts 225°
2026-04-30 08:45 43.43671 5.22120 37 ft 2 kts 144°
2026-04-30 08:45 43.43663 5.22117 37 ft 8 kts 189°
2026-04-30 08:45 43.43596 5.22149 37 ft 10 kts 140°
2026-04-30 08:45 43.43537 5.22197 37 ft 9 kts 152°
2026-04-30 08:46 43.43504 5.22221 37 ft 0 kts 152°
2026-04-30 08:46 43.43482 5.22237 37 ft 6 kts 152°
2026-04-30 08:47 43.43424 5.22276 37 ft 12 kts 157°
2026-04-30 08:47 43.43344 5.22242 37 ft 15 kts 240°
2026-04-30 08:47 43.43325 5.22103 37 ft 15 kts 271°
2026-04-30 08:47 43.43336 5.21981 36 ft 13 kts 298°
2026-04-30 08:48 43.43353 5.21954 35 ft 0 kts 313°
2026-04-30 08:48 43.43354 5.21952 35 ft 0 kts 313°
2026-04-30 08:48 43.43356 5.21950 35 ft 0 kts 313°
2026-04-30 08:48 43.43371 5.21929 35 ft 13 kts 313°
2026-04-30 08:49 43.43625 5.21562 37 ft 89 kts 314°
2026-04-30 08:49 43.44195 5.20744 38 ft 145 kts 313°
2026-04-30 08:49 43.44695 5.20015 213 ft 160 kts 313°
2026-04-30 08:49 43.45467 5.18888 813 ft 166 kts 314°
2026-04-30 08:50 43.46272 5.17712 1431 ft 170 kts 314°
2026-04-30 08:50 43.47095 5.16516 2041 ft 174 kts 315°
2026-04-30 08:50 43.47938 5.15303 2600 ft 176 kts 316°
2026-04-30 08:50 43.48791 5.14107 3231 ft 175 kts 317°
2026-04-30 08:51 43.49683 5.12863 3551 ft 193 kts 317°
2026-04-30 08:51 43.50680 5.11467 3826 ft 216 kts 316°
2026-04-30 08:51 43.51792 5.09905 4100 ft 240 kts 316°
2026-04-30 08:51 43.53019 5.08169 4437 ft 265 kts 315°
2026-04-30 08:52 43.54349 5.06275 5002 ft 281 kts 315°
2026-04-30 08:52 43.55723 5.04310 5854 ft 286 kts 314°
2026-04-30 08:52 43.57103 5.02328 6797 ft 287 kts 313°
2026-04-30 08:52 43.58489 5.00348 7714 ft 287 kts 313°
2026-04-30 08:53 43.59885 4.98365 8607 ft 289 kts 313°
2026-04-30 08:53 43.61291 4.96373 9491 ft 290 kts 312°
2026-04-30 08:53 43.62703 4.94376 10350 ft 293 kts 313°
2026-04-30 08:53 43.64176 4.92292 10646 ft 315 kts 313°
2026-04-30 08:54 43.65761 4.90051 10929 ft 335 kts 314°
2026-04-30 08:54 43.67576 4.87979 11551 ft 343 kts 326°
2026-04-30 08:54 43.69709 4.86446 12279 ft 348 kts 338°
2026-04-30 08:54 43.72040 4.85454 13044 ft 352 kts 343°
2026-04-30 08:55 43.74407 4.84534 13803 ft 355 kts 343°
2026-04-30 08:55 43.76793 4.83602 14479 ft 358 kts 343°
2026-04-30 08:55 43.79197 4.82660 15120 ft 361 kts 343°
2026-04-30 08:55 43.81621 4.81706 15747 ft 364 kts 343°
2026-04-30 08:56 43.84068 4.80744 16366 ft 367 kts 343°
2026-04-30 08:56 43.86538 4.79773 16984 ft 370 kts 343°
2026-04-30 08:56 43.89027 4.78790 17598 ft 374 kts 343°
2026-04-30 08:56 43.91541 4.77796 18207 ft 377 kts 342°
2026-04-30 08:57 43.94075 4.76794 18757 ft 381 kts 343°
2026-04-30 08:57 43.96632 4.75785 19284 ft 384 kts 343°
2026-04-30 08:57 43.99210 4.74769 19820 ft 387 kts 343°
2026-04-30 08:57 44.01822 4.73818 20357 ft 390 kts 345°
2026-04-30 08:58 44.04479 4.72968 20894 ft 393 kts 346°
2026-04-30 08:58 44.07164 4.72176 21426 ft 396 kts 347°
2026-04-30 08:58 44.09874 4.71397 21958 ft 399 kts 347°
2026-04-30 08:58 44.12600 4.70607 22473 ft 402 kts 347°
2026-04-30 08:59 44.15350 4.69789 22984 ft 405 kts 346°
2026-04-30 08:59 44.18112 4.68948 23477 ft 408 kts 346°
2026-04-30 08:59 44.20896 4.68087 23919 ft 411 kts 346°
2026-04-30 08:59 44.23694 4.67216 24324 ft 414 kts 346°
2026-04-30 09:00 44.26512 4.66341 24721 ft 416 kts 346°
2026-04-30 09:00 44.29344 4.65466 25115 ft 418 kts 346°
2026-04-30 09:00 44.32193 4.64587 25490 ft 420 kts 346°
2026-04-30 09:00 44.35056 4.63704 25867 ft 422 kts 346°
2026-04-30 09:01 44.37931 4.62813 26246 ft 424 kts 346°
2026-04-30 09:01 44.40819 4.61913 26616 ft 426 kts 346°
2026-04-30 09:01 44.43724 4.61004 26976 ft 428 kts 346°
2026-04-30 09:01 44.46639 4.60091 27328 ft 431 kts 346°
2026-04-30 09:02 44.52513 4.58256 28031 ft 435 kts 346°
2026-04-30 09:02 44.55470 4.57331 28393 ft 436 kts 346°
2026-04-30 09:02 44.58440 4.56398 28672 ft 439 kts 345°
2026-04-30 09:03 44.61435 4.55462 28960 ft 442 kts 346°
2026-04-30 09:03 44.64447 4.54564 29259 ft 445 kts 349°
2026-04-30 09:03 44.67542 4.54171 29558 ft 449 kts 358°
2026-04-30 09:03 44.70671 4.54459 29856 ft 453 kts
2026-04-30 09:04 44.73794 4.55079 30139 ft 455 kts
2026-04-30 09:04 44.76937 4.55698 30376 ft 457 kts
2026-04-30 09:04 44.80088 4.56311 30614 ft 458 kts
2026-04-30 09:04 44.83250 4.56923 30833 ft 460 kts
2026-04-30 09:05 44.86421 4.57537 31047 ft 460 kts
2026-04-30 09:05 44.89593 4.58151 31330 ft 460 kts
2026-04-30 09:05 44.92754 4.58762 31669 ft 457 kts
2026-04-30 09:05 44.95901 4.59374 31996 ft 456 kts
2026-04-30 09:06 44.99038 4.59988 32319 ft 455 kts
2026-04-30 09:06 45.02167 4.60604 32616 ft 454 kts
2026-04-30 09:06 45.05294 4.61224 32905 ft 453 kts
2026-04-30 09:06 45.08413 4.61840 33194 ft 452 kts
2026-04-30 09:07 45.11527 4.62455 33497 ft 452 kts
2026-04-30 09:07 45.14585 4.63467 33804 ft 452 kts 17°
2026-04-30 09:07 45.17485 4.65216 34071 ft 454 kts 27°
2026-04-30 09:07 45.20130 4.67639 34142 ft 452 kts 37°
2026-04-30 09:08 45.24398 4.74126 34142 ft 451 kts 51°
2026-04-30 09:08 45.28245 4.81146 34142 ft 450 kts 51°
2026-04-30 09:09 45.32076 4.88135 34141 ft 447 kts 51°
2026-04-30 09:09 45.35880 4.95117 34138 ft 446 kts 51°
2026-04-30 09:10 45.39679 5.02097 34133 ft 446 kts 51°
2026-04-30 09:10 45.43471 5.09079 34132 ft 446 kts 51°
2026-04-30 09:11 45.47254 5.16076 34136 ft 446 kts 51°
2026-04-30 09:11 45.51043 5.23084 34132 ft 446 kts 51°
2026-04-30 09:12 45.54830 5.30095 34127 ft 446 kts 51°
2026-04-30 09:12 45.58605 5.37126 34135 ft 446 kts 51°
2026-04-30 09:13 45.62376 5.44162 34139 ft 446 kts 51°
2026-04-30 09:13 45.66146 5.51217 34169 ft 446 kts 50°
2026-04-30 09:14 45.69909 5.58268 34169 ft 446 kts 50°
2026-04-30 09:14 45.73663 5.65336 34189 ft 446 kts 50°
2026-04-30 09:15 45.77421 5.72409 34186 ft 446 kts 50°
2026-04-30 09:15 45.81171 5.79495 34190 ft 446 kts 51°
2026-04-30 09:16 45.84917 5.86595 34204 ft 446 kts 50°
2026-04-30 09:16 45.88660 5.93689 34211 ft 446 kts 50°
2026-04-30 09:17 45.92827 6.00287 34204 ft 441 kts 39°
2026-04-30 09:17 45.97361 6.06150 34200 ft 442 kts 39°
2026-04-30 09:18 46.01919 6.12070 34192 ft 441 kts 40°
2026-04-30 09:18 46.06491 6.18024 34194 ft 440 kts 40°
2026-04-30 09:19 46.11014 6.23949 34226 ft 439 kts 40°
2026-04-30 09:19 46.15532 6.29864 34225 ft 439 kts 40°
2026-04-30 09:20 46.20050 6.35787 34231 ft 438 kts 41°
2026-04-30 09:20 46.24556 6.41693 34246 ft 436 kts 41°
2026-04-30 09:21 46.29033 6.47589 34240 ft 434 kts 41°
2026-04-30 09:21 46.33488 6.53473 34244 ft 433 kts 41°
2026-04-30 09:22 46.37937 6.59349 34219 ft 432 kts 39°
2026-04-30 09:22 46.40400 6.61809 34229 ft 430 kts 27°
2026-04-30 09:22 46.43171 6.63418 34250 ft 429 kts 14°
2026-04-30 09:23 46.46113 6.64106 34248 ft 429 kts
2026-04-30 09:23 46.49084 6.63835 34245 ft 429 kts 349°
2026-04-30 09:23 46.51946 6.62610 34222 ft 430 kts 337°
2026-04-30 09:23 46.54652 6.60735 34230 ft 431 kts 335°
2026-04-30 09:24 46.60043 6.56919 34221 ft 431 kts 335°
2026-04-30 09:24 46.65445 6.53111 34220 ft 432 kts 335°
2026-04-30 09:25 46.70850 6.49284 34193 ft 432 kts 335°
2026-04-30 09:25 46.76251 6.45443 34195 ft 432 kts 335°
2026-04-30 09:26 46.81654 6.41602 34190 ft 433 kts 336°
2026-04-30 09:26 46.86160 6.38380 34181 ft 434 kts 336°
2026-04-30 09:27 46.91597 6.34487 34156 ft 436 kts 336°
2026-04-30 09:27 46.97052 6.30585 34157 ft 437 kts 336°
2026-04-30 09:28 47.02512 6.26668 34167 ft 437 kts 336°
2026-04-30 09:28 47.07978 6.22749 34158 ft 437 kts 336°
2026-04-30 09:29 47.13446 6.18812 34165 ft 438 kts 336°
2026-04-30 09:29 47.18916 6.14860 34155 ft 438 kts 335°
2026-04-30 09:30 47.24392 6.10898 34140 ft 439 kts 336°
2026-04-30 09:30 47.29874 6.06914 34150 ft 439 kts 336°
2026-04-30 09:31 47.35568 6.03874 34151 ft 433 kts 352°
2026-04-30 09:31 47.41535 6.03388 34175 ft 429 kts
2026-04-30 09:32 47.47513 6.03536 34186 ft 429 kts
2026-04-30 09:32 47.53477 6.03683 34206 ft 429 kts
2026-04-30 09:33 47.59439 6.03812 34210 ft 428 kts
2026-04-30 09:33 47.65396 6.03939 34211 ft 428 kts
2026-04-30 09:34 47.71351 6.04066 34215 ft 428 kts
2026-04-30 09:34 47.77297 6.04363 34204 ft 427 kts
2026-04-30 09:35 47.83199 6.05152 34189 ft 426 kts
2026-04-30 09:35 47.89095 6.06046 34192 ft 425 kts
2026-04-30 09:36 47.94990 6.06853 34203 ft 425 kts
2026-04-30 09:36 48.00889 6.07600 34201 ft 425 kts
2026-04-30 09:37 48.06784 6.08341 34211 ft 425 kts
2026-04-30 09:37 48.12678 6.09097 34219 ft 425 kts
2026-04-30 09:38 48.18578 6.09865 34232 ft 426 kts
2026-04-30 09:38 48.24476 6.10637 34240 ft 426 kts
2026-04-30 09:39 48.30377 6.11408 34229 ft 426 kts
2026-04-30 09:39 48.36284 6.12182 34232 ft 426 kts
2026-04-30 09:40 48.42228 6.12962 34232 ft 426 kts
2026-04-30 09:40 48.48137 6.13737 34231 ft 426 kts
2026-04-30 09:41 48.54045 6.14518 34230 ft 426 kts
2026-04-30 09:41 48.59960 6.15298 34260 ft 427 kts
2026-04-30 09:42 48.65878 6.16077 34263 ft 427 kts
2026-04-30 09:42 48.71790 6.16862 34266 ft 427 kts
2026-04-30 09:43 48.77710 6.17642 34266 ft 427 kts
2026-04-30 09:43 48.83623 6.18428 34266 ft 427 kts
2026-04-30 09:44 48.89542 6.19216 34294 ft 427 kts
2026-04-30 09:44 48.95456 6.20007 34287 ft 427 kts
2026-04-30 09:45 49.01376 6.20808 34289 ft 427 kts
2026-04-30 09:45 49.07299 6.21599 34290 ft 427 kts
2026-04-30 09:46 49.13221 6.22393 34291 ft 427 kts
2026-04-30 09:46 49.19148 6.23187 34291 ft 427 kts
2026-04-30 09:47 49.25065 6.23986 34294 ft 427 kts
2026-04-30 09:47 49.30987 6.24790 34304 ft 427 kts
2026-04-30 09:48 49.36904 6.25597 34307 ft 427 kts
2026-04-30 09:48 49.42816 6.26407 34316 ft 427 kts
2026-04-30 09:49 49.48721 6.27157 34323 ft 428 kts
2026-04-30 09:49 49.54681 6.25954 34308 ft 438 kts 349°
2026-04-30 09:50 49.60578 6.23529 34302 ft 439 kts 349°
2026-04-30 09:50 49.66486 6.21097 34307 ft 440 kts 349°
2026-04-30 09:51 49.72405 6.18657 34308 ft 440 kts 349°
2026-04-30 09:51 49.78326 6.16208 34311 ft 441 kts 349°
2026-04-30 09:52 49.84256 6.13760 33930 ft 441 kts 349°
2026-04-30 09:52 49.87197 6.12390 33651 ft 444 kts 344°
2026-04-30 09:52 49.90105 6.10731 33379 ft 445 kts 344°
2026-04-30 09:53 49.93011 6.09068 33118 ft 445 kts 344°
2026-04-30 09:53 49.95909 6.07406 32857 ft 443 kts 344°
2026-04-30 09:53 49.98793 6.05749 32589 ft 441 kts 344°
2026-04-30 09:53 50.01668 6.04096 32325 ft 439 kts 344°
2026-04-30 09:54 50.04526 6.02454 32054 ft 437 kts 343°
2026-04-30 09:54 50.07375 6.00817 31799 ft 435 kts 343°
2026-04-30 09:54 50.10207 5.99187 31546 ft 433 kts 343°
2026-04-30 09:54 50.13023 5.97565 31295 ft 431 kts 343°
2026-04-30 09:55 50.15829 5.95949 31040 ft 429 kts 343°
2026-04-30 09:55 50.18629 5.94337 30791 ft 428 kts 343°
2026-04-30 09:55 50.21419 5.92726 30541 ft 427 kts 343°
2026-04-30 09:55 50.24201 5.91116 30291 ft 426 kts 343°
2026-04-30 09:56 50.26973 5.89509 30006 ft 424 kts 343°
2026-04-30 09:56 50.29727 5.87906 29720 ft 421 kts 343°
2026-04-30 09:56 50.32457 5.86313 29203 ft 416 kts 343°
2026-04-30 09:56 50.35158 5.84737 28674 ft 412 kts 343°
2026-04-30 09:57 50.37833 5.83180 28152 ft 408 kts 343°
2026-04-30 09:57 50.40489 5.81634 27826 ft 407 kts 343°
2026-04-30 09:57 50.43145 5.80086 27563 ft 407 kts 343°
2026-04-30 09:57 50.45796 5.78537 27307 ft 406 kts 343°
2026-04-30 09:58 50.48436 5.76995 27045 ft 404 kts 343°
2026-04-30 09:58 50.51068 5.75457 26789 ft 402 kts 343°
2026-04-30 09:58 50.53685 5.73926 26541 ft 401 kts 343°
2026-04-30 09:58 50.56255 5.72228 26293 ft 402 kts 335°
2026-04-30 09:59 50.60678 5.66845 25800 ft 406 kts 314°
2026-04-30 09:59 50.64223 5.59936 25259 ft 402 kts 311°
2026-04-30 10:00 50.67695 5.53111 24321 ft 397 kts 311°
2026-04-30 10:00 50.69418 5.49726 23841 ft 395 kts 311°
2026-04-30 10:01 50.72832 5.43004 22856 ft 389 kts 311°
2026-04-30 10:01 50.74513 5.39676 22387 ft 386 kts 311°
2026-04-30 10:01 50.76181 5.36370 21908 ft 384 kts 311°
2026-04-30 10:02 50.79486 5.29806 20961 ft 380 kts 311°
2026-04-30 10:02 50.81126 5.26536 20485 ft 379 kts 311°
2026-04-30 10:02 50.82757 5.23271 20006 ft 378 kts 311°
2026-04-30 10:02 50.84384 5.20015 19531 ft 377 kts 311°
2026-04-30 10:03 50.85959 5.16695 19047 ft 378 kts 304°
2026-04-30 10:03 50.87144 5.12977 18572 ft 380 kts 292°
2026-04-30 10:03 50.87829 5.08934 18070 ft 380 kts 279°
2026-04-30 10:03 50.88066 5.04773 17612 ft 378 kts 274°
2026-04-30 10:04 50.88244 5.00632 17158 ft 376 kts 274°
2026-04-30 10:04 50.88424 4.96510 16703 ft 375 kts 274°
2026-04-30 10:04 50.88605 4.92402 16254 ft 373 kts 274°
2026-04-30 10:04 50.88786 4.88310 15806 ft 372 kts 274°
2026-04-30 10:05 50.88965 4.84232 15359 ft 371 kts 274°
2026-04-30 10:05 50.89143 4.80161 14912 ft 370 kts 274°
2026-04-30 10:05 50.89261 4.77420 14613 ft 369 kts 274°
2026-04-30 10:05 50.89433 4.73364 14158 ft 369 kts 274°
2026-04-30 10:06 50.89602 4.69320 13669 ft 367 kts 274°
2026-04-30 10:06 50.89768 4.65292 13197 ft 365 kts 273°
2026-04-30 10:06 50.89928 4.61301 12744 ft 362 kts 273°
2026-04-30 10:06 50.90087 4.57330 12291 ft 360 kts 273°
2026-04-30 10:07 50.90251 4.53383 11836 ft 358 kts 274°
2026-04-30 10:07 50.90510 4.49477 11378 ft 356 kts 277°
2026-04-30 10:07 50.90852 4.45600 10916 ft 354 kts 278°
2026-04-30 10:07 50.91231 4.41757 10541 ft 350 kts 278°
2026-04-30 10:08 50.91607 4.38025 10414 ft 337 kts 278°
2026-04-30 10:08 50.91960 4.34422 10293 ft 325 kts 278°
2026-04-30 10:08 50.92286 4.30922 10069 ft 317 kts 277°
2026-04-30 10:08 50.92594 4.27471 9676 ft 316 kts 277°
2026-04-30 10:09 50.92896 4.24032 9283 ft 314 kts 277°
2026-04-30 10:09 50.93188 4.20611 8877 ft 312 kts 275°
2026-04-30 10:09 50.93112 4.17213 8499 ft 307 kts 256°
2026-04-30 10:09 50.92400 4.14073 8086 ft 300 kts 237°
2026-04-30 10:10 50.91159 4.11486 7654 ft 293 kts 220°
2026-04-30 10:10 50.89526 4.09633 6947 ft 285 kts 199°
2026-04-30 10:10 50.87685 4.08835 6454 ft 266 kts 179°
2026-04-30 10:10 50.85925 4.09055 6064 ft 245 kts 160°
2026-04-30 10:11 50.84403 4.10011 5717 ft 228 kts 151°
2026-04-30 10:11 50.82999 4.11016 5402 ft 217 kts 150°
2026-04-30 10:11 50.81724 4.12202 5049 ft 210 kts 130°
2026-04-30 10:11 50.81125 4.14278 4524 ft 215 kts 94°
2026-04-30 10:12 50.81513 4.16574 4166 ft 222 kts 66°
2026-04-30 10:12 50.82216 4.18729 3836 ft 219 kts 69°
2026-04-30 10:12 50.82845 4.20911 3522 ft 216 kts 70°
2026-04-30 10:12 50.83437 4.23028 3204 ft 205 kts 71°
2026-04-30 10:13 50.83996 4.25030 3002 ft 191 kts 71°
2026-04-30 10:13 50.84520 4.26878 2986 ft 179 kts 71°
2026-04-30 10:13 50.85008 4.28569 3006 ft 160 kts 71°
2026-04-30 10:13 50.85462 4.30126 2853 ft 154 kts 72°
2026-04-30 10:14 50.85871 4.31696 2392 ft 155 kts 74°
2026-04-30 10:14 50.86252 4.33298 1961 ft 153 kts 75°
2026-04-30 10:14 50.86974 4.36154 1567 ft 136 kts 69°
2026-04-30 10:15 50.87455 4.37416 1336 ft 131 kts 64°
2026-04-30 10:15 50.87926 4.38652 1100 ft 129 kts 66°
2026-04-30 10:15 50.88311 4.39912 907 ft 128 kts 70°
2026-04-30 10:15 50.88648 4.41236 702 ft 129 kts 69°
2026-04-30 10:16 50.89011 4.42533 641 ft 131 kts 69°
2026-04-30 10:16 50.89385 4.43829 456 ft 128 kts 68°
2026-04-30 10:16 50.89761 4.45111 293 ft 130 kts 67°
2026-04-30 10:17 50.90454 4.47519 122 ft 89 kts 65°
2026-04-30 10:17 50.90630 4.48372 119 ft 14 kts 119°
2026-04-30 10:17 50.90618 4.48406 119 ft 0 kts 119°
2026-04-30 10:18 50.90617 4.48409 119 ft 0 kts 119°
2026-04-30 10:18 50.90617 4.48410 119 ft 0 kts 119°
2026-04-30 10:18 50.90616 4.48413 120 ft 2 kts 119°
2026-04-30 10:19 50.90553 4.48589 117 ft 10 kts 120°
2026-04-30 10:19 50.90522 4.48679 120 ft 8 kts 123°
2026-04-30 10:19 50.90474 4.48710 117 ft 5 kts 153°
2026-04-30 10:19 50.90448 4.48730 118 ft 2 kts 155°
2026-04-30 10:20 50.90443 4.48734 119 ft 0 kts 155°